Regional Weather Roundup
Issued by NWS

Home | Current Version | Previous Version | Graphics & Text | Print | Product List | Glossary Off
Versions: 1 2 3 4 5 6 7 8 9 10 11 12 13 14 15 16 17 18 19 20 21 22 23 24 25 26 27 28 29 30 31 32 33 34 35 36 37 38 39 40 41 42 43 44 45 46 47 48 49 50

000
ASUS43 KTOP 240259
RWRKS

WEATHER ROUNDUP FOR KANSAS
NATIONAL WEATHER SERVICE GOODLAND KS
1000 PM CDT WED MAY 23 2018

NOTE:  "FAIR" INDICATES FEW OR NO CLOUDS BELOW 12,000 FEET WITH NO
SIGNIFICANT WEATHER AND/OR OBSTRUCTIONS TO VISIBILITY.

KSZ001>006-013>018-027>032-041>047-240400-
NORTHWEST KANSAS

CITY           SKY/WX    TMP DP  RH WIND       PRES   REMARKS
GOODLAND       MOCLDY    73  57  57 S17       29.93S
HAYS           PTCLDY    67  58  72 SE9       29.98S
HILL CITY      CLOUDY    71  57  61 SE9       29.95S
RUSSELL        CLOUDY    71  61  70 S13       29.97R
$$

KSZ061>065-074>080-084>089-240400-
SOUTHWEST KANSAS

CITY           SKY/WX    TMP DP  RH WIND       PRES   REMARKS
DODGE CITY     CLOUDY    71  57  61 SE21G29   30.03R
GARDEN CITY    CLOUDY    72  55  55 S15       29.95F
GREAT BEND     CLOUDY    70  62  76 S14       30.00S
LIBERAL        CLOUDY    69  54  58 SE31G38   29.92F
$$

KSZ066>073-081>083-090>101-240400-
SOUTHEAST KANSAS

CITY           SKY/WX    TMP DP  RH WIND       PRES   REMARKS
CHANUTE        CLOUDY    70  68  93 S5        30.07R
COFFEYVILLE    PTCLDY    70  68  93 CALM      30.06R
HUTCHINSON     CLOUDY    78  67  68 SE16      30.02R
MEDICINE LODGE   N/A     70  61  73 SE9       30.06R
NEWTON         PTCLDY    73  64  73 SE15      30.06R
PARSONS        FOG       68  68 100 CALM      30.07S VSB 3/4
WICHITA INTL   MOCLDY    76  68  76 SE15      30.05R
WICHITA JABRA  CLOUDY    74  66  76 SE15      30.06R
WINFIELD       CLOUDY    72  68  87 SE8       30.08R
$$

KSZ007>012-019>026-033>040-048>060-102>105-240400-
NORTHEAST KANSAS

CITY           SKY/WX    TMP DP  RH WIND       PRES   REMARKS
CONCORDIA      MOCLDY    78  64  61 SE16G26   29.99R
EMPORIA        PTCLDY    71  64  78 SE9       30.05R
LAWRENCE       CLOUDY    77  68  73 S9        30.05R
MANHATTAN      PTCLDY    78  68  71 S14       30.01R
OLATHE IND     CLOUDY    74  67  78 SE6       30.08S
OLATHE EXE     CLOUDY    73  65  75 SE6       30.08S
SALINA         PTCLDY    80  68  66 SE16      30.00R
TOPEKA BILLARD CLOUDY    77  69  76 SE8       30.04R
TOPEKA FORBES  CLOUDY    77  69  76 S9        30.05S
$$



USA.gov is the U.S. government's official web portal to all federal, state and local government web resources and services.